TimeCDT,TemperatureF,Dew PointF,Humidity,Sea Level PressureIn,VisibilityMPH,Wind Direction,Wind SpeedMPH,Gust SpeedMPH,PrecipitationIn,Events,Conditions,WindDirDegrees,DateUTC
12:15 AM,76.1,66.0,71,30.07,10.0,NE,3.5,-,N/A,,Mostly Cloudy,40,2013-09-11 05:15:00
12:35 AM,76.1,66.2,71,30.09,10.0,North,9.2,-,N/A,,Overcast,350,2013-09-11 05:35:00
12:55 AM,74.5,68.0,80,30.08,10.0,NNE,4.6,-,0.03,Rain,Light Rain,30,2013-09-11 05:55:00
1:15 AM,73.2,68.4,85,30.08,10.0,NE,3.5,-,N/A,,Mostly Cloudy,40,2013-09-11 06:15:00
1:35 AM,72.5,68.2,86,30.08,10.0,ESE,3.5,-,N/A,Rain,Light Rain,110,2013-09-11 06:35:00
1:55 AM,72.5,68.2,86,30.08,10.0,NE,3.5,-,N/A,,Scattered Clouds,50,2013-09-11 06:55:00
2:15 AM,72.9,68.5,86,30.09,10.0,NNW,3.5,-,N/A,,Overcast,340,2013-09-11 07:15:00
2:35 AM,72.1,70.5,95,30.10,10.0,Calm,Calm,-,N/A,,Overcast,0,2013-09-11 07:35:00
2:55 AM,71.8,70.7,96,30.10,10.0,Calm,Calm,-,N/A,,Overcast,0,2013-09-11 07:55:00
3:15 AM,71.6,70.5,96,30.10,10.0,Calm,Calm,-,N/A,,Overcast,0,2013-09-11 08:15:00
3:35 AM,71.4,70.7,98,30.09,10.0,Calm,Calm,-,N/A,,Overcast,0,2013-09-11 08:35:00
3:55 AM,71.2,70.9,99,30.08,10.0,Calm,Calm,-,N/A,,Scattered Clouds,0,2013-09-11 08:55:00
4:15 AM,70.7,70.7,100,30.08,10.0,Calm,Calm,-,N/A,,Scattered Clouds,0,2013-09-11 09:15:00
4:35 AM,70.7,70.7,100,30.09,10.0,Calm,Calm,-,N/A,,Mostly Cloudy,0,2013-09-11 09:35:00
4:55 AM,70.7,70.7,100,30.08,10.0,SSE,4.6,-,N/A,,Mostly Cloudy,160,2013-09-11 09:55:00
5:15 AM,70.7,70.7,100,30.09,10.0,Calm,Calm,-,N/A,,Scattered Clouds,0,2013-09-11 10:15:00
5:35 AM,70.3,70.3,100,30.09,7.0,SW,4.6,-,0.01,Rain,Light Rain,220,2013-09-11 10:35:00
5:55 AM,70.3,70.3,100,30.09,10.0,WSW,3.5,-,0.02,Rain,Light Rain,250,2013-09-11 10:55:00
6:15 AM,70.2,70.2,100,30.09,10.0,South,4.6,-,N/A,Rain,Light Rain,190,2013-09-11 11:15:00
6:35 AM,70.2,70.2,100,30.08,10.0,South,5.8,-,0.01,Rain,Light Rain,170,2013-09-11 11:35:00
6:55 AM,70.2,70.2,100,30.09,10.0,South,5.8,-,0.01,,Mostly Cloudy,180,2013-09-11 11:55:00
7:15 AM,70.0,70.0,100,30.09,10.0,SSE,3.5,-,N/A,,Scattered Clouds,160,2013-09-11 12:15:00
7:35 AM,70.2,70.2,100,30.09,10.0,Calm,Calm,-,N/A,,Scattered Clouds,0,2013-09-11 12:35:00
7:55 AM,70.5,70.5,100,30.09,10.0,Calm,Calm,-,N/A,,Scattered Clouds,0,2013-09-11 12:55:00
8:15 AM,70.9,70.9,100,30.10,10.0,Calm,Calm,-,N/A,,Scattered Clouds,0,2013-09-11 13:15:00
8:35 AM,71.8,71.4,99,30.10,10.0,South,3.5,-,N/A,,Scattered Clouds,180,2013-09-11 13:35:00
8:55 AM,72.3,72.1,99,30.10,10.0,South,3.5,-,N/A,,Mostly Cloudy,180,2013-09-11 13:55:00
9:15 AM,72.7,71.8,97,30.10,10.0,Calm,Calm,-,N/A,,Scattered Clouds,0,2013-09-11 14:15:00
9:35 AM,73.4,72.1,96,30.11,10.0,NNE,3.5,-,N/A,,Clear,30,2013-09-11 14:35:00
9:55 AM,73.8,72.0,94,30.11,10.0,Calm,Calm,-,N/A,,Clear,0,2013-09-11 14:55:00
10:15 AM,75.4,73.2,93,30.11,10.0,Calm,Calm,-,N/A,,Clear,0,2013-09-11 15:15:00
10:16 AM,75.2,73.4,94,30.11,10.0,Calm,Calm,-,N/A,,Clear,0,2013-09-11 15:16:00
10:35 AM,75.6,71.6,87,30.12,10.0,Calm,Calm,-,N/A,,Scattered Clouds,0,2013-09-11 15:35:00
10:55 AM,77.4,70.5,79,30.12,10.0,Calm,Calm,-,N/A,,Scattered Clouds,0,2013-09-11 15:55:00
11:15 AM,77.9,71.6,81,30.12,10.0,Calm,Calm,-,N/A,,Clear,0,2013-09-11 16:15:00
11:35 AM,77.7,70.3,78,30.12,10.0,Calm,Calm,-,N/A,,Scattered Clouds,0,2013-09-11 16:35:00
11:55 AM,78.3,70.2,76,30.12,10.0,Calm,Calm,-,N/A,,Scattered Clouds,0,2013-09-11 16:55:00
12:15 PM,79.7,69.1,70,30.12,10.0,NNE,3.5,-,N/A,,Clear,30,2013-09-11 17:15:00
12:35 PM,80.6,69.3,68,30.12,10.0,Calm,Calm,-,N/A,,Mostly Cloudy,0,2013-09-11 17:35:00
12:55 PM,80.6,68.2,66,30.12,10.0,Calm,Calm,-,N/A,,Mostly Cloudy,0,2013-09-11 17:55:00
1:15 PM,81.7,69.1,65,30.12,10.0,Calm,Calm,-,N/A,,Mostly Cloudy,0,2013-09-11 18:15:00
1:35 PM,82.4,69.3,64,30.11,10.0,Calm,Calm,-,N/A,,Scattered Clouds,0,2013-09-11 18:35:00
1:55 PM,82.0,68.9,64,30.11,10.0,Calm,Calm,-,N/A,,Mostly Cloudy,0,2013-09-11 18:55:00
2:15 PM,82.2,68.9,64,30.11,10.0,Calm,Calm,-,N/A,,Scattered Clouds,0,2013-09-11 19:15:00
2:35 PM,81.9,69.6,66,30.10,10.0,Calm,Calm,-,N/A,,Scattered Clouds,0,2013-09-11 19:35:00
2:55 PM,83.5,70.0,64,30.10,10.0,Calm,Calm,-,N/A,,Mostly Cloudy,0,2013-09-11 19:55:00
3:15 PM,81.9,70.0,67,30.10,10.0,SSW,3.5,-,N/A,,Overcast,210,2013-09-11 20:15:00
3:35 PM,79.2,72.0,78,30.10,4.0,Calm,Calm,-,0.05,Rain,Light Rain,0,2013-09-11 20:35:00
3:55 PM,79.3,70.3,74,30.09,10.0,Calm,Calm,-,0.05,,Mostly Cloudy,0,2013-09-11 20:55:00
4:15 PM,78.8,71.2,78,30.09,3.0,Calm,Calm,-,0.05,Rain,Heavy Rain,0,2013-09-11 21:15:00
4:35 PM,76.5,72.5,87,30.10,5.0,NNW,3.5,-,0.10,Rain,Light Rain,340,2013-09-11 21:35:00
4:55 PM,75.2,72.7,92,30.10,7.0,NNW,4.6,-,0.15,Rain-Thunderstorm,Light Thunderstorms and Rain,340,2013-09-11 21:55:00
5:15 PM,77.0,73.6,89,30.11,10.0,NW,5.8,-,N/A,Thunderstorm,Thunderstorm,320,2013-09-11 22:15:00
5:35 PM,77.2,73.4,88,30.09,10.0,NNW,6.9,-,N/A,,Mostly Cloudy,340,2013-09-11 22:35:00
5:55 PM,77.0,73.4,89,30.08,10.0,NNE,5.8,-,N/A,,Scattered Clouds,20,2013-09-11 22:55:00
6:15 PM,76.5,74.8,95,30.08,10.0,NNE,4.6,-,N/A,,Clear,30,2013-09-11 23:15:00
6:35 PM,76.3,74.5,94,30.08,10.0,Calm,Calm,-,N/A,,Scattered Clouds,0,2013-09-11 23:35:00
6:55 PM,76.1,74.7,95,30.08,10.0,Calm,Calm,-,N/A,,Scattered Clouds,0,2013-09-11 23:55:00
7:15 PM,75.4,75.2,99,30.08,10.0,Calm,Calm,-,N/A,,Clear,0,2013-09-12 00:15:00
7:35 PM,74.8,74.7,99,30.08,7.0,Calm,Calm,-,N/A,,Clear,0,2013-09-12 00:35:00
7:55 PM,74.3,74.3,100,30.08,7.0,North,3.5,-,N/A,,Scattered Clouds,10,2013-09-12 00:55:00
8:15 PM,73.8,73.8,100,30.09,7.0,NNE,4.6,-,N/A,,Overcast,20,2013-09-12 01:15:00
8:35 PM,73.4,73.4,100,30.10,7.0,North,4.6,-,N/A,,Scattered Clouds,10,2013-09-12 01:35:00
8:55 PM,73.4,73.4,100,30.10,10.0,Calm,Calm,-,N/A,,Scattered Clouds,0,2013-09-12 01:55:00
9:15 PM,72.9,72.9,100,30.11,7.0,Calm,Calm,-,N/A,,Mostly Cloudy,0,2013-09-12 02:15:00
9:35 PM,73.4,73.4,100,30.11,10.0,Calm,Calm,-,N/A,,Overcast,0,2013-09-12 02:35:00
9:55 PM,73.0,73.0,100,30.12,7.0,South,3.5,-,N/A,,Mostly Cloudy,190,2013-09-12 02:55:00
10:15 PM,73.0,73.0,100,30.12,7.0,Calm,Calm,-,N/A,,Mostly Cloudy,0,2013-09-12 03:15:00
10:35 PM,72.9,72.9,100,30.12,5.0,NNW,4.6,-,N/A,,Overcast,340,2013-09-12 03:35:00
10:55 PM,72.5,72.1,99,30.13,10.0,Calm,Calm,-,N/A,Rain,Light Rain,0,2013-09-12 03:55:00
11:15 PM,71.8,71.6,99,30.14,5.0,NW,5.8,-,0.03,Rain,Heavy Rain,320,2013-09-12 04:15:00
11:35 PM,70.7,70.2,98,30.14,5.0,Calm,Calm,-,0.16,Rain,Rain,0,2013-09-12 04:35:00
11:55 PM,70.7,70.5,99,30.15,7.0,WNW,4.6,-,0.21,Rain,Rain,290,2013-09-12 04:55:00